Weather in Iskateley

Russia / Nenets Autonomous Okrug     67°40′39″N   53°07′38″E
temp.,
°C
wind,
m/s
gust,
m/s
humid.,
%
clouds,
%
prec.,
mm/h
press.,
hPa
HPBL,
m
1 march, mon
mon100:00−12ssw61095100 0.1 1005208
03:00−10ssw81294100 0.2 1002330
06:00−7s91593100 0.8 997467
09:00−5ssw101594100 1.6 992703
12:00−4ssw101594100 1.7 988771
15:00−3ssw101695100 3.1 985667
18:00+1wnw81398100 1.4 982671
21:000w61196100 1.6 983510
2 march, tue
tue200:00−2wsw6995100 0.1 983236
03:00−3wsw5996100 0.4 984243
06:00−3sw589599 0.1 984224
09:00−5sw4696100 0.1 985155
12:00−5sw359698 0.1 986199
15:00−4wnw239798 0.6 98768
18:00−7nw2388100 0.3 98822
21:00−12w118892 0.3 98821
3 march, wed
wed300:00−14wsw019253 0.0 98821
03:00−14ne229629 0.0 98920
06:00−15nne449786 0.0 98968
09:00−16nne479692 0.1 991185
12:00−15n4694100 0.0 991262
15:00−14n4695100 0.1 992267
18:00−15nnw359698 0.2 992110
21:00−15nw239697 0.3 99331
4 march, thu
thu400:00−14nne2396100 0.2 99225
03:00−15ne599599 0.4 993244
06:00−16ne5995100 0.1 993286
09:00−17ne6995100 0.2 994370
12:00−17ne61093100 0.1 995391
15:00−18ne51094100 0.1 996373
18:00−20nne5998100 0.0 997195
21:00−20nne51098100 0.1 997256
5 march, fri
fri500:00−23n51098100 0.0 998214
03:00−24n4898100 0.1 998141
06:00−24n4898100 0.0 999140
09:00−21n5896100 0.1 999315
12:00−20n5794100 0.1 1001459
15:00−20nnw5894100 0.1 1002452
18:00−22nnw479797 0.1 1003166
21:00−22nnw599699 0.1 1004280